Tracking 31027 objects as of 19-Jul-2025
HD Live streaming from Space Station
objects crossing your sky now

STARLINK-32236

Track STARLINK-32236 now!
10-day predictions
STARLINK-32236 is classified as:


NORAD ID: 60418
Int'l Code: 2024-141W
Perigee: 481.5 km
Apogee: 483.3 km
Inclination: 53.2 °
Period: 94.1 minutes
Semi major axis: 6853 km
RCS: Unknown
Launch date: August 10, 2024
Source: United States (US)
Launch site: AIR FORCE EASTERN TEST RANGE (AFETR)
Your satellite tracking list
PRISMA
Track 1 satellite(s)




NASA's NSSDC Master Catalog

Two Line Element Set (TLE):
1 60418U 24141W   25199.55192175  .00000727  00000-0  36682-4 0  9997
2 60418  53.1595 250.0940 0001298  82.3147 277.8001 15.30189920 53724
Source of the keplerian elements: AFSPC